Flag for U.S.A. Weather past 2 weeks in Chico, California, U.S.A.

Now
64 °F

Partly cloudy.


Feels Like: 64 °F
Forecast: 53 / 79 °F
Wind: 7 mph from North

Location: Chico Municipal


UV Index: 5 (Moderate)

Visibility: 10 mi


Pressure: 29.80 "Hg

Humidity: 60%

Dew point: 50 °F

Location of ChicoLocation

Historic Weather in Chico

°F

Chico temperature yesterday

Maximum temperature yesterday: 82 °F (at 4:54 PM)
Minimum temperature yesterday: 55 °F (at 5:55 AM)
Average temperature yesterday: 67 °F

Past Weeks' High & Low Weather Summary

 TemperatureHumidityPressure
High84 °F (Apr 17, 3:59 PM)100% (Apr 5, 4:35 AM)30.24 "Hg (Apr 5, 4:35 AM)
Low39 °F (Apr 5, 5:55 AM)18% (Apr 13, 2:57 PM)29.72 "Hg (Apr 17, 5:50 PM)
Average61 °F60%29.98 "Hg
* Reported Apr 2 8:15 PM — Apr 17 8:35 PM, Chico, Weather by CustomWeather, © 2014

Note: Actual official high and low records may vary slightly from our data, if they occured in-between our weather recording intervals... More about our weather records

Advertising

Historic Weather Conditions — Data for Previous 24 hours

 ConditionsComfort  
Time TempWeatherWind HumidityBarometerVisibility
8:35 PM
Apr 17
63 °FPartly sunny.9 mph73%29.79 "Hg10 mi
8:15 PM64 °FPartly sunny.10 mph60%29.78 "Hg10 mi
7:55 PM64 °FPartly sunny.14 mph60%29.78 "Hg10 mi
7:35 PM64 °FMore clouds than sun.16 mph64%29.77 "Hg4 mi
7:15 PM66 °FLow clouds.18 mph64%29.76 "Hg4 mi
6:55 PM64 °FOvercast.17 mph68%29.75 "Hg10 mi
5:50 PM75 °FPartly sunny.17 mph57%29.72 "Hg10 mi
3:59 PM84 °FScattered clouds.14 mph29%29.73 "Hg10 mi
2:58 PM82 °FScattered clouds.14 mph30%29.75 "Hg10 mi
1:55 PM82 °FScattered clouds.12 mph30%29.77 "Hg10 mi
12:59 PM79 °FScattered clouds.12 mph34%29.78 "Hg25 mi
11:54 AM77 °FScattered clouds.12 mph36%29.80 "Hg40 mi
10:55 AM72 °FScattered clouds.No wind44%29.81 "Hg40 mi
9:58 AM68 °FSunny.5 mph49%29.82 "Hg40 mi
8:59 AM68 °FPassing clouds.7 mph49%29.79 "Hg80 mi
7:47 AM57 °FPassing clouds.6 mph67%29.79 "Hg80 mi
6:50 AM55 °FPassing clouds.No wind67%29.79 "Hg80 mi
6:35 AM55 °FClear.No wind67%29.78 "Hg10 mi
5:55 AM55 °FPassing clouds.No wind67%29.78 "Hg10 mi
5:35 AM55 °FClear.No wind72%29.77 "Hg10 mi
5:15 AM54 °FClear.No wind77%29.78 "Hg10 mi
4:55 AM57 °FClear.No wind67%29.77 "Hg10 mi
4:35 AM55 °FClear.No wind72%29.77 "Hg10 mi
4:15 AM55 °FClear.No wind72%29.77 "Hg10 mi
3:55 AM54 °FClear.No wind77%29.78 "Hg10 mi
3:35 AM57 °FClear.No wind67%29.78 "Hg10 mi
3:15 AM59 °FClear.No wind63%29.78 "Hg10 mi
2:55 AM59 °FClear.No wind63%29.78 "Hg10 mi
2:35 AM63 °FClear.No wind52%29.79 "Hg10 mi
2:15 AM63 °FClear.No wind56%29.79 "Hg10 mi
1:55 AM63 °FClear.No wind56%29.79 "Hg10 mi
1:35 AM63 °FClear.No wind56%29.80 "Hg10 mi
1:15 AM63 °FClear.No wind56%29.80 "Hg10 mi
12:55 AM63 °FClear.No wind56%29.80 "Hg10 mi
12:35 AM61 °FClear.No wind59%29.81 "Hg10 mi
12:15 AM63 °FClear.No wind52%29.81 "Hg10 mi
11:55 PM
Apr 16
64 °FClear.6 mph49%29.81 "Hg10 mi
11:35 PM64 °FClear.6 mph49%29.81 "Hg10 mi
11:15 PM64 °FClear.7 mph49%29.81 "Hg10 mi
10:55 PM66 °FClear.6 mph46%29.81 "Hg10 mi
10:35 PM68 °FClear.No wind46%29.81 "Hg10 mi
10:15 PM66 °FClear.No wind49%29.81 "Hg10 mi
9:55 PM68 °FClear.No wind46%29.81 "Hg10 mi
9:35 PM68 °FClear.No wind49%29.80 "Hg10 mi
9:15 PM68 °FClear.3 mph46%29.79 "Hg10 mi
Weather by CustomWeather, © 2014

See weather overview